Location: Windsor
(43.2292°N, 89.3015°W)
Time: 04:16:31
(UTC+00:00)

BEESAT - Pass Details

Date: 09 July 2022
Orbit: 700 x 706 km, 98.6° (Epoch: 07 August)

Event Time Altitude Azimuth Distance (km) Brightness Sun altitude
Rises 02:57:50 0° 7° (N) 3,106 ? -11.9°
Reaches altitude 10° 03:00:10 10° 2° (N) 2,184 ? -12.2°
Maximum altitude 03:04:43 46° 290° (WNW) 949 ? -12.7°
Drops below altitude 10° 03:09:15 10° 218° (SW) 2,172 ? -13.3°
Sets 03:11:34 0° 212° (SSW) 3,086 ? -13.6°
